Find Local Weather

World > North America > United States > Arizona

Green Valley, Arizona Regional Weather

Lat: 31.85N, Lon: 111.01W
Wx Zone: AZZ504
Feedback
Expires:201804210300;;260604
ASUS45 KPSR 210210
RWRAZ 

ARIZONA HOURLY REGIONAL WEATHER ROUNDUP
NATIONAL WEATHER SERVICE PHOENIX AZ
700 PM MST FRI APR 20 2018

NOTE: FAIR INDICATES FEW OR NO CLOUDS BELOW 12,000 FEET WITH NO
SIGNIFICANT WEATHER AND/OR OBSTRUCTIONS TO VISIBILITY.


AZZ503-504-507>509-210300-
SOUTHEAST ARIZONA
  
CITY           SKY/WX    TMP DP  RH WIND       PRES   REMARKS
TUCSON         CLEAR     70  22  16 MISG      30.03R                  
DAVIS-MONTHAN  CLEAR     69  23  18 NW10      30.01R                  
NOGALES        CLEAR     65  16  15 NW8       30.06R                  
SIERRA VISTA   CLEAR     60  15  17 NW12      30.08R                  
DOUGLAS        CLEAR     62  16  16 N16       30.04R                  
SAFFORD        CLEAR     64  22  20 NW18G28   29.98R                  
$$


SKY/WX - Weather  TMP - Temperature  DP - Dewpoint  RH - Relative Humidity
WIND - Wind Direction/Speed PRES - Barometric Pressure